FW1524 Weather Reports


time (UTC)temp
C
wind
direction
speed
KPH
gust
KPH
rain 1hr
cm
rain 24hr
cm
rain mn
cm
humidity
%
barometer
mb
20260507124517 8 26 0.0 0.0 0.00 0.58 0.00 6 1011.4
20260507123018 7 24 0.0 0.0 0.00 0.71 0.00 1 1011.4
20260507120006 6 24 0.0 0.0 0.00 0.71 0.00 1 1011.3
20260507114501 6 63 0.0 0.0 0.00 0.71 0.00 1 1011.3
20260507113058 5 63 0.0 0.0 0.00 0.76 0.00 1 1011.2
20260507110050 4 36 0.0 0.0 0.00 0.76 0.00 1 1011.0
20260507104542 3 36 0.0 0.0 0.00 0.76 0.00 1 1011.0
20260507103035 3 36 0.0 0.0 0.00 0.81 0.00 1 1010.9
20260507100032 3 232 0.0 0.0 0.00 0.81 0.00 1 1010.6
20260507094522 3 232 0.0 0.0 0.00 0.81 0.00 1 1010.6
20260507093025 4 232 0.0 0.0 0.00 0.84 0.00 1 1010.5
20260507090111 5 232 0.0 0.0 0.00 0.84 0.00 1 1010.6
20260507084550 6 232 0.0 0.0 0.00 0.84 0.00 1 1010.7
20260507083046 6 232 0.0 0.0 0.00 0.84 0.00 1 1010.6
20260507080047 6 223 0.0 0.0 0.00 0.84 0.00 1 1010.6
20260507074543 7 256 0.0 0.0 0.00 0.84 0.00 1 1010.6
20260507073049 7 198 0.0 0.0 0.00 0.84 0.00 1 1010.6
20260507070043 7 225 0.0 0.0 0.00 0.84 0.00 1 1010.5
20260507064530 7 269 0.0 0.0 0.00 0.84 0.00 1 1010.5
20260507063028 7 38 0.0 1.6 0.00 0.84 0.00 1 1010.1
20260507060016 7 157 0.0 0.0 0.00 0.84 0.00 1 1009.8
20260507054508 8 84 0.0 0.0 0.00 0.84 0.00 1 1009.8
20260507053005 8 81 0.0 0.0 0.00 0.84 0.00 1 1009.7
20260507050045 7 239 0.0 0.0 0.00 0.84 0.00 1 1009.9
20260507044546 7 239 0.0 0.0 0.00 0.84 0.00 1 1010.1
20260507043042 7 239 0.0 0.0 0.00 0.84 0.84 1 1009.9
20260507040043 7 239 0.0 0.0 0.00 0.84 0.84 1 1009.7
20260507034538 7 239 0.0 0.0 0.00 0.84 0.84 1 1009.4
20260507033034 7 239 0.0 0.0 0.00 0.84 0.84 1 1009.3
20260507030018 8 239 0.0 0.0 0.00 0.84 0.84 1 1009.8
20260507024514 8 239 0.0 0.0 0.00 0.84 0.84 1 1010.0
20260507023010 8 239 0.0 0.0 0.00 0.84 0.84 1 1009.7
20260507020003 8 239 0.0 0.0 0.00 0.84 0.84 1 1009.9
20260507014615 8 239 0.0 0.0 0.00 0.84 0.84 1 1010.1
20260507013056 8 239 0.0 0.0 0.00 0.84 0.84 1 1010.0
20260507011653 8 239 0.0 0.0 0.00 0.84 0.84 1 1010.1
20260507010113 8 239 0.0 0.0 0.00 0.84 0.84 1 1010.0
20260507004555 8 239 0.0 0.0 0.00 0.84 0.84 1 1009.6
20260507003050 8 239 0.0 0.0 0.00 0.84 0.84 1 1009.6
20260507001648 8 239 0.0 0.0 0.00 0.84 0.84 1 1009.3
20260507000043 8 239 0.0 0.0 0.00 0.84 0.84 1 1009.3
20260506234537 8 238 0.0 0.0 0.00 0.84 0.84 1 1009.0
20260506233031 8 238 0.0 0.0 0.00 0.84 0.84 1 1008.9
20260506231629 9 245 0.0 0.0 0.00 0.84 0.84 1 1008.8
20260506230036 9 234 0.0 0.0 0.00 0.84 0.84 1 1008.6
20260506224535 9 279 0.0 0.0 0.00 0.84 0.84 1 1008.5
20260506223026 9 24 0.0 0.0 0.00 0.86 0.84 1 1008.1
20260506221620 9 238 0.0 0.0 0.00 0.86 0.84 1 1007.9
20260506220005 9 11 0.0 0.0 0.00 0.86 0.84 1 1007.9
20260506214502 10 315 0.0 0.0 0.00 0.86 0.84 1 1008.0
20260506213057 10 26 0.0 6.4 0.00 0.86 0.84 1 1007.8
20260506211553 10 228 0.0 0.0 0.00 0.86 0.84 1 1007.3
20260506210058 10 242 0.0 0.0 0.00 0.86 0.84 1 1007.1
20260506204553 10 265 0.0 0.0 0.00 0.86 0.84 1 1006.9
20260506203053 10 52 0.0 0.0 0.03 1.07 0.84 1 1006.6
20260506201607 10 17 0.0 0.0 0.05 1.07 0.84 1 1005.9
20260506200035 10 34 0.0 0.0 0.05 1.07 0.84 1 1006.0
20260506194540 10 60 0.0 0.0 0.05 1.07 0.84 1 1005.9
20260506193033 10 229 0.0 0.0 0.03 1.04 0.81 1 1005.9
20260506191526 11 38 0.0 0.0 0.00 1.02 0.79 1 1005.5
20260506190054 11 40 0.0 0.0 0.00 1.02 0.79 1 1005.2
20260506184553 11 24 0.0 1.6 0.00 1.02 0.79 1 1005.1
20260506183046 12 19 0.0 0.0 0.03 1.02 0.79 1 1005.0
20260506181541 13 250 0.0 0.0 0.03 1.02 0.79 1 1004.4
20260506180044 13 225 0.0 0.0 0.03 1.02 0.79 1 1004.3
20260506174540 15 213 0.0 1.6 0.03 1.02 0.79 1 1003.8
20260506173043 15 234 0.0 0.0 0.00 1.04 0.76 1 1003.6
20260506171543 15 155 0.0 0.0 0.00 1.04 0.76 1 1003.6
20260506170001 15 155 0.0 0.0 0.00 1.04 0.76 1 1003.7
20260506164556 15 254 0.0 0.0 0.00 1.04 0.76 1 1003.7
20260506163102 14 24 0.0 0.0 0.03 1.04 0.76 1 1003.8
20260506161548 14 221 0.0 1.6 0.08 1.04 0.76 1 1003.6
20260506160059 14 78 0.0 0.0 0.10 1.04 0.76 1 1003.9
20260506154600 14 78 0.0 0.0 0.13 1.04 0.76 1 1004.0
20260506153049 14 78 0.0 0.0 0.13 1.02 0.71 1 1003.8
20260506151544 14 78 0.0 0.0 0.08 0.97 0.69 1 1004.2
20260506150032 14 78 0.0 0.0 0.08 0.94 0.66 1 1003.9
20260506144527 13 78 0.0 0.0 0.10 0.94 0.66 1 1003.7
20260506143023 13 78 0.0 0.0 0.13 0.91 0.64 1 1003.9
20260506141518 13 78 0.0 0.0 0.20 0.89 0.61 1 1003.9
20260506140042 13 78 0.0 0.0 0.25 0.89 0.61 1 1004.0
20260506134530 13 78 0.0 0.0 0.30 0.84 0.56 1 1004.2
20260506133028 13 78 0.0 0.0 0.33 0.79 0.51 1 1004.5
20260506131524 13 76 0.0 0.0 0.28 0.69 0.41 1 1004.9
20260506130016 12 76 0.0 0.0 0.25 0.66 0.38 1 1005.1